contact: severine.martini@mio.osupytheas.fr, dominique.lefevre@mio.osupytheas.fr
Project:EMSO Ligure-ouest http://www.emso-fr.org/EMSO-France
Sensor Microcat Sea-Bird SBE37 SMP,  Serial 57510 
DOI : "https://doi.org/10.17882/97948" 
Title:EMSO Ligure Ouest : Data Bathybot capteur Microcat - deploiement 2023-04-28
Datetime,Profondeur,Latitude,Longitude,Temperature,Conductivite,Pression,Salinite
time,m,degree_north,degree_east,degree_C,S/m,db,PSU 
2023-12-08T09:18:49,2420,42.8014,5.9826,13.2987,4.59926,2453.364,38.4879
2023-12-08T09:21:49,2420,42.8014,5.9826,13.2981,4.59908,2453.311,38.4868
2023-12-08T09:24:49,2420,42.8014,5.9826,13.2984,4.59918,2453.318,38.4875
2023-12-08T09:27:49,2420,42.8014,5.9826,13.2981,4.59918,2453.311,38.4878
2023-12-08T09:30:49,2420,42.8014,5.9826,13.2979,4.59926,2453.333,38.4886
2023-12-08T09:33:49,2420,42.8014,5.9826,13.2989,4.59917,2453.318,38.4869
2023-12-08T09:36:49,2420,42.8014,5.9826,13.2980,4.59936,2453.371,38.4895
2023-12-08T09:39:49,2420,42.8014,5.9826,13.2984,4.59937,2453.311,38.4893
2023-12-08T09:42:49,2420,42.8014,5.9826,13.2988,4.59950,2453.333,38.4901
2023-12-08T09:45:49,2420,42.8014,5.9826,13.2979,4.59937,2453.311,38.4897
2023-12-08T09:48:49,2420,42.8014,5.9826,13.3001,4.59951,2453.311,38.4888
2023-12-08T09:51:49,2420,42.8014,5.9826,13.2990,4.59952,2453.333,38.4901
2023-12-08T09:54:49,2420,42.8014,5.9826,13.2985,4.59988,2453.333,38.4939
2023-12-08T09:57:49,2420,42.8014,5.9826,13.3004,4.59970,2453.318,38.4903
2023-12-08T10:00:49,2420,42.8014,5.9826,13.3001,4.59962,2453.341,38.4899
2023-12-08T10:03:49,2420,42.8014,5.9826,13.3004,4.60004,2453.356,38.4935
2023-12-08T10:06:49,2420,42.8014,5.9826,13.3056,4.60086,2453.333,38.4961
2023-12-08T10:09:49,2420,42.8014,5.9826,13.3044,4.60109,2453.379,38.4994
2023-12-08T10:12:49,2420,42.8014,5.9826,13.3056,4.60094,2453.356,38.4969
2023-12-08T10:15:49,2420,42.8014,5.9826,13.3054,4.60060,2453.356,38.4939
2023-12-08T10:18:49,2420,42.8014,5.9826,13.3105,4.60016,2453.401,38.4847
2023-12-08T10:21:49,2420,42.8014,5.9826,13.3058,4.60207,2453.379,38.5074
2023-12-08T10:24:49,2420,42.8014,5.9826,13.3079,4.59990,2453.401,38.4847
2023-12-08T10:27:49,2420,42.8014,5.9826,13.3203,4.60015,2453.401,38.4748
2023-12-08T10:30:49,2420,42.8014,5.9826,13.3006,4.60062,2453.424,38.4989
2023-12-08T10:33:49,2420,42.8014,5.9826,13.3064,4.60062,2453.401,38.4931
2023-12-08T10:36:49,2420,42.8014,5.9826,13.3068,4.60106,2453.401,38.4968
2023-12-08T10:39:49,2420,42.8014,5.9826,13.3051,4.60073,2453.401,38.4954
2023-12-08T10:42:49,2420,42.8014,5.9826,13.3085,4.60048,2453.438,38.4896
2023-12-08T10:45:49,2420,42.8014,5.9826,13.3366,4.60110,2453.401,38.4677
2023-12-08T10:48:49,2420,42.8014,5.9826,13.3519,4.60072,2453.424,38.4488
2023-12-08T10:51:49,2420,42.8014,5.9826,13.3126,4.60175,2453.416,38.4976
2023-12-08T10:54:49,2420,42.8014,5.9826,13.3046,4.60031,2453.438,38.4920
2023-12-08T10:57:50,2420,42.8014,5.9826,13.3057,4.60055,2453.416,38.4931
2023-12-08T11:00:49,2420,42.8014,5.9826,13.3098,4.60175,2453.379,38.5004
2023-12-08T11:03:49,2420,42.8014,5.9826,13.3146,4.60026,2453.438,38.4815
2023-12-08T11:06:49,2420,42.8014,5.9826,13.3120,4.60032,2453.461,38.4847
2023-12-08T11:09:49,2420,42.8014,5.9826,13.3281,4.59999,2453.424,38.4656
2023-12-08T11:12:49,2420,42.8014,5.9826,13.3179,4.59998,2453.446,38.4756
2023-12-08T11:15:49,2420,42.8014,5.9826,13.3271,4.59987,2453.424,38.4654
2023-12-08T11:18:49,2420,42.8014,5.9826,13.3232,4.60002,2453.461,38.4707
2023-12-08T11:21:49,2420,42.8014,5.9826,13.3240,4.60009,2453.438,38.4706
2023-12-08T11:24:49,2420,42.8014,5.9826,13.3148,4.60009,2453.446,38.4798
2023-12-08T11:27:49,2420,42.8014,5.9826,13.3086,4.59998,2453.461,38.4848
2023-12-08T11:30:49,2420,42.8014,5.9826,13.3077,4.59977,2453.446,38.4837
2023-12-08T11:33:49,2420,42.8014,5.9826,13.3075,4.59981,2453.491,38.4843
2023-12-08T11:36:49,2420,42.8014,5.9826,13.3051,4.59998,2453.424,38.4883
2023-12-08T11:39:49,2420,42.8014,5.9826,13.3063,4.60030,2453.469,38.4901
2023-12-08T11:42:49,2420,42.8014,5.9826,13.3057,4.60028,2453.483,38.4905
2023-12-08T11:45:49,2420,42.8014,5.9826,13.3040,4.60001,2453.446,38.4897
2023-12-08T11:48:49,2420,42.8014,5.9826,13.3054,4.59977,2453.469,38.4861
2023-12-08T11:51:49,2420,42.8014,5.9826,13.3056,4.59982,2453.469,38.4863
2023-12-08T11:54:49,2420,42.8014,5.9826,13.3054,4.60008,2453.454,38.4889
2023-12-08T11:57:50,2420,42.8014,5.9826,13.3062,4.59994,2453.446,38.4869
2023-12-08T12:00:49,2420,42.8014,5.9826,13.3051,4.60002,2453.469,38.4886
2023-12-08T12:03:49,2420,42.8014,5.9826,13.3063,4.59996,2453.483,38.4868
2023-12-08T12:06:49,2420,42.8014,5.9826,13.3054,4.59990,2453.446,38.4873
2023-12-08T12:09:49,2420,42.8014,5.9826,13.3038,4.59988,2453.469,38.4886
2023-12-08T12:12:49,2420,42.8014,5.9826,13.3058,4.59971,2453.491,38.4850
2023-12-08T12:15:49,2420,42.8014,5.9826,13.3049,4.59954,2453.491,38.4843
2023-12-08T12:18:49,2420,42.8014,5.9826,13.3059,4.59986,2453.491,38.4864
2023-12-08T12:21:49,2420,42.8014,5.9826,13.3275,4.59962,2453.469,38.4627
2023-12-08T12:24:49,2420,42.8014,5.9826,13.3158,4.59964,2453.514,38.4744
2023-12-08T12:27:49,2420,42.8014,5.9826,13.3122,4.59974,2453.506,38.4790
2023-12-08T12:30:49,2420,42.8014,5.9826,13.3133,4.59967,2453.491,38.4772
2023-12-08T12:33:49,2420,42.8014,5.9826,13.3261,4.59982,2453.469,38.4659
2023-12-08T12:36:49,2420,42.8014,5.9826,13.3074,4.59986,2453.491,38.4848
2023-12-08T12:39:49,2420,42.8014,5.9826,13.3183,4.59986,2453.491,38.4741
2023-12-08T12:42:49,2420,42.8014,5.9826,13.3232,4.59988,2453.506,38.4694
2023-12-08T12:45:49,2420,42.8014,5.9826,13.3191,4.59969,2453.506,38.4717
2023-12-08T12:48:49,2420,42.8014,5.9826,13.3169,4.59976,2453.506,38.4745
2023-12-08T12:51:49,2420,42.8014,5.9826,13.3130,4.59967,2453.514,38.4775
2023-12-08T12:54:49,2420,42.8014,5.9826,13.3113,4.59981,2453.491,38.4805
2023-12-08T12:57:49,2420,42.8014,5.9826,13.3064,4.60021,2453.537,38.4891
2023-12-08T13:00:49,2420,42.8014,5.9826,13.3096,4.59999,2453.506,38.4839
2023-12-08T13:03:49,2420,42.8014,5.9826,13.3061,4.59982,2453.528,38.4857
2023-12-08T13:06:49,2420,42.8014,5.9826,13.3127,4.59970,2453.551,38.4780
2023-12-08T13:09:49,2420,42.8014,5.9826,13.3092,4.59965,2453.537,38.4811
2023-12-08T13:12:49,2420,42.8014,5.9826,13.3114,4.59977,2453.528,38.4800
2023-12-08T13:15:49,2420,42.8014,5.9826,13.3070,4.59939,2453.446,38.4808
2023-12-08T13:18:49,2420,42.8014,5.9826,13.3127,4.59968,2453.461,38.4779
2023-12-08T13:21:49,2420,42.8014,5.9826,13.3199,4.59975,2453.551,38.4714
2023-12-08T13:24:49,2420,42.8014,5.9826,13.3058,4.59962,2453.537,38.4842
2023-12-08T13:27:49,2420,42.8014,5.9826,13.3066,4.59973,2453.551,38.4843
2023-12-08T13:30:49,2420,42.8014,5.9826,13.3069,4.59986,2453.514,38.4854
2023-12-08T13:33:49,2420,42.8014,5.9826,13.3118,4.59969,2453.514,38.4789
2023-12-08T13:36:49,2420,42.8014,5.9826,13.3186,4.59970,2453.537,38.4722
2023-12-08T13:39:49,2420,42.8014,5.9826,13.3280,4.60004,2453.537,38.4661
2023-12-08T13:42:49,2420,42.8014,5.9826,13.3158,4.59980,2453.514,38.4760
2023-12-08T13:45:49,2420,42.8014,5.9826,13.3188,4.59984,2453.537,38.4733
2023-12-08T13:48:49,2420,42.8014,5.9826,13.3357,4.60007,2453.514,38.4587
2023-12-08T13:51:49,2420,42.8014,5.9826,13.3246,4.60057,2453.483,38.4745
2023-12-08T13:54:49,2420,42.8014,5.9826,13.3434,4.60058,2453.469,38.4560
2023-12-08T13:57:49,2420,42.8014,5.9826,13.3684,4.60067,2453.506,38.4320
2023-12-08T14:00:49,2420,42.8014,5.9826,13.3038,4.60060,2453.559,38.4954
2023-12-08T14:03:49,2420,42.8014,5.9826,13.3197,4.60361,2453.582,38.5080
2023-12-08T14:06:49,2420,42.8014,5.9826,13.3338,4.60203,2453.596,38.4791
2023-12-08T14:09:49,2420,42.8014,5.9826,13.3388,4.60399,2453.574,38.4927
2023-12-08T14:12:49,2420,42.8014,5.9826,13.3859,4.60235,2453.574,38.4305
2023-12-08T14:15:49,2420,42.8014,5.9826,13.3175,4.60346,2453.537,38.5089
2023-12-08T14:18:49,2420,42.8014,5.9826,13.3163,4.60263,2453.574,38.5022
2023-12-08T14:21:49,2420,42.8014,5.9826,13.3268,4.60365,2453.559,38.5014
2023-12-08T14:24:49,2420,42.8014,5.9826,13.3628,4.60225,2453.596,38.4525
2023-12-08T14:27:49,2420,42.8014,5.9826,13.3458,4.60229,2453.582,38.4697
2023-12-08T14:30:49,2420,42.8014,5.9826,13.3590,4.60427,2453.559,38.4753
2023-12-08T14:33:49,2420,42.8014,5.9826,13.3355,4.60447,2453.596,38.5004
2023-12-08T14:36:49,2420,42.8014,5.9826,13.3722,4.60253,2453.551,38.4458
2023-12-08T14:39:49,2420,42.8014,5.9826,13.3685,4.60121,2453.582,38.4369
2023-12-08T14:42:49,2420,42.8014,5.9826,13.3732,4.60407,2453.619,38.4593
2023-12-08T14:45:49,2420,42.8014,5.9826,13.3179,4.60364,2453.619,38.5100
2023-12-08T14:48:49,2420,42.8014,5.9826,13.3382,4.60302,2453.619,38.4840
2023-12-08T14:51:49,2420,42.8014,5.9826,13.3447,4.60402,2453.604,38.4871
2023-12-08T14:54:49,2420,42.8014,5.9826,13.3840,4.60292,2453.619,38.4378
2023-12-08T14:57:49,2420,42.8014,5.9826,13.3211,4.60440,2453.604,38.5141
2023-12-08T15:00:49,2420,42.8014,5.9826,13.3082,4.60263,2453.596,38.5101
2023-12-08T15:03:49,2420,42.8014,5.9826,13.3569,4.60362,2453.582,38.4712
2023-12-08T15:06:49,2420,42.8014,5.9826,13.3153,4.60501,2453.574,38.5256
2023-12-08T15:09:49,2420,42.8014,5.9826,13.3245,4.60479,2453.551,38.5145
2023-12-08T15:12:49,2420,42.8014,5.9826,13.3305,4.60269,2453.596,38.4886
2023-12-08T15:15:49,2420,42.8014,5.9826,13.3108,4.60237,2453.559,38.5051
2023-12-08T15:18:49,2420,42.8014,5.9826,13.3264,4.60333,2453.619,38.4987
2023-12-08T15:21:49,2420,42.8014,5.9826,13.3125,4.60489,2453.619,38.5272
2023-12-08T15:24:49,2420,42.8014,5.9826,13.3229,4.60194,2453.574,38.4891
2023-12-08T15:27:49,2420,42.8014,5.9826,13.3233,4.59986,2453.596,38.4691
2023-12-08T15:30:49,2420,42.8014,5.9826,13.3245,4.59994,2453.596,38.4687
2023-12-08T15:33:49,2420,42.8014,5.9826,13.3118,4.59959,2453.649,38.4779
2023-12-08T15:36:49,2420,42.8014,5.9826,13.3113,4.60178,2453.627,38.4990
2023-12-08T15:39:49,2420,42.8014,5.9826,13.3146,4.60224,2453.627,38.5001
2023-12-08T15:42:49,2420,42.8014,5.9826,13.3624,4.60344,2453.664,38.4641
2023-12-08T15:45:49,2420,42.8014,5.9826,13.3182,4.60125,2453.604,38.4873
2023-12-08T15:48:49,2420,42.8014,5.9826,13.3137,4.60357,2453.641,38.5136
2023-12-08T15:51:49,2420,42.8014,5.9826,13.3203,4.60353,2453.619,38.5067
2023-12-08T15:54:49,2420,42.8014,5.9826,13.3131,4.60299,2453.641,38.5087
2023-12-08T15:57:49,2420,42.8014,5.9826,13.3179,4.60250,2453.641,38.4993
2023-12-08T16:00:49,2420,42.8014,5.9826,13.3072,4.60171,2453.627,38.5024
2023-12-08T16:03:49,2420,42.8014,5.9826,13.3123,4.60215,2453.604,38.5016
2023-12-08T16:06:49,2420,42.8014,5.9826,13.3127,4.60300,2453.641,38.5091
2023-12-08T16:09:49,2420,42.8014,5.9826,13.3433,4.60470,2453.627,38.4949
2023-12-08T16:12:49,2420,42.8014,5.9826,13.3159,4.60275,2453.604,38.5037
2023-12-08T16:15:49,2420,42.8014,5.9826,13.3114,4.60015,2453.627,38.4835
2023-12-08T16:18:49,2420,42.8014,5.9826,13.3113,4.60230,2453.627,38.5040
2023-12-08T16:21:49,2420,42.8014,5.9826,13.3026,4.60061,2453.627,38.4967
2023-12-08T16:24:49,2420,42.8014,5.9826,13.3095,4.60057,2453.649,38.4894
2023-12-08T16:27:49,2420,42.8014,5.9826,13.3035,4.60019,2453.627,38.4918
2023-12-08T16:30:49,2420,42.8014,5.9826,13.3009,4.60076,2453.649,38.4998
2023-12-08T16:33:49,2420,42.8014,5.9826,13.3000,4.59973,2453.649,38.4909
2023-12-08T16:36:49,2420,42.8014,5.9826,13.3067,4.60043,2453.649,38.4909
2023-12-08T16:39:49,2420,42.8014,5.9826,13.3079,4.59990,2453.627,38.4847
2023-12-08T16:42:49,2420,42.8014,5.9826,13.3018,4.60002,2453.627,38.4919
2023-12-08T16:45:49,2420,42.8014,5.9826,13.3051,4.59962,2453.627,38.4848
2023-12-08T16:48:49,2420,42.8014,5.9826,13.3036,4.59979,2453.649,38.4879
2023-12-08T16:51:49,2420,42.8014,5.9826,13.2991,4.59967,2453.649,38.4913
2023-12-08T16:54:49,2420,42.8014,5.9826,13.2996,4.59968,2453.627,38.4908
2023-12-08T16:57:49,2420,42.8014,5.9826,13.3020,4.59987,2453.687,38.4903
2023-12-08T17:00:49,2420,42.8014,5.9826,13.3017,4.59971,2453.627,38.4891
2023-12-08T17:03:49,2420,42.8014,5.9826,13.3005,4.60002,2453.590,38.4931
2023-12-08T17:06:49,2420,42.8014,5.9826,13.3000,4.59967,2453.627,38.4904
2023-12-08T17:09:49,2420,42.8014,5.9826,13.2985,4.59981,2453.627,38.4932
2023-12-08T17:12:49,2420,42.8014,5.9826,13.2991,4.59968,2453.604,38.4914
2023-12-08T17:15:49,2420,42.8014,5.9826,13.2998,4.59965,2453.649,38.4903
2023-12-08T17:18:49,2420,42.8014,5.9826,13.2993,4.59955,2453.627,38.4899
2023-12-08T17:21:49,2420,42.8014,5.9826,13.3016,4.59981,2453.649,38.4901
2023-12-08T17:24:49,2420,42.8014,5.9826,13.3029,4.59967,2453.649,38.4875
2023-12-08T17:27:49,2420,42.8014,5.9826,13.3002,4.59950,2453.612,38.4885
2023-12-08T17:30:49,2420,42.8014,5.9826,13.2991,4.59971,2453.641,38.4916
2023-12-08T17:33:49,2420,42.8014,5.9826,13.3008,4.59983,2453.649,38.4911
2023-12-08T17:36:49,2420,42.8014,5.9826,13.3002,4.59946,2453.627,38.4882
2023-12-08T17:39:49,2420,42.8014,5.9826,13.2993,4.59949,2453.664,38.4894
2023-12-08T17:42:49,2420,42.8014,5.9826,13.2985,4.59951,2453.649,38.4904
2023-12-08T17:45:49,2420,42.8014,5.9826,13.2985,4.59952,2453.627,38.4905
2023-12-08T17:48:49,2420,42.8014,5.9826,13.2980,4.59940,2453.627,38.4898
2023-12-08T17:51:49,2420,42.8014,5.9826,13.3015,4.59954,2453.641,38.4876
2023-12-08T17:54:49,2420,42.8014,5.9826,13.2986,4.59957,2453.627,38.4909
2023-12-08T17:57:49,2420,42.8014,5.9826,13.3007,4.59948,2453.627,38.4879
2023-12-08T18:00:49,2420,42.8014,5.9826,13.2988,4.59959,2453.627,38.4909
2023-12-08T18:03:49,2420,42.8014,5.9826,13.2981,4.59961,2453.627,38.4917
2023-12-08T18:06:49,2420,42.8014,5.9826,13.2999,4.59955,2453.627,38.4893
2023-12-08T18:09:49,2420,42.8014,5.9826,13.2986,4.59947,2453.604,38.4898
2023-12-08T18:12:49,2420,42.8014,5.9826,13.2991,4.59961,2453.619,38.4907
2023-12-08T18:15:49,2420,42.8014,5.9826,13.2982,4.59957,2453.627,38.4912
2023-12-08T18:18:49,2420,42.8014,5.9826,13.2990,4.59958,2453.627,38.4905
2023-12-08T18:21:49,2420,42.8014,5.9826,13.2985,4.59947,2453.619,38.4900
2023-12-08T18:24:49,2420,42.8014,5.9826,13.3003,4.59976,2453.649,38.4909
2023-12-08T18:27:49,2420,42.8014,5.9826,13.2993,4.59959,2453.641,38.4903
2023-12-08T18:30:49,2420,42.8014,5.9826,13.2990,4.59943,2453.604,38.4891
2023-12-08T18:33:49,2420,42.8014,5.9826,13.2991,4.59931,2453.627,38.4878
2023-12-08T18:36:49,2420,42.8014,5.9826,13.2988,4.59945,2453.604,38.4895
2023-12-08T18:39:49,2420,42.8014,5.9826,13.2988,4.59926,2453.590,38.4877
2023-12-08T18:42:49,2420,42.8014,5.9826,13.2986,4.59922,2453.627,38.4875
2023-12-08T18:45:49,2420,42.8014,5.9826,13.2986,4.59925,2453.604,38.4878
2023-12-08T18:48:49,2420,42.8014,5.9826,13.2984,4.59928,2453.627,38.4883
2023-12-08T18:51:49,2420,42.8014,5.9826,13.2985,4.59922,2453.612,38.4877
2023-12-08T18:54:49,2420,42.8014,5.9826,13.2982,4.59926,2453.649,38.4883
2023-12-08T18:57:49,2420,42.8014,5.9826,13.2985,4.59922,2453.604,38.4876
2023-12-08T19:00:49,2420,42.8014,5.9826,13.2982,4.59922,2453.612,38.4880
2023-12-08T19:03:49,2420,42.8014,5.9826,13.2990,4.59925,2453.604,38.4874
2023-12-08T19:06:49,2420,42.8014,5.9826,13.2984,4.59921,2453.604,38.4876
2023-12-08T19:09:49,2420,42.8014,5.9826,13.2982,4.59926,2453.582,38.4883
2023-12-08T19:12:49,2420,42.8014,5.9826,13.2983,4.59923,2453.604,38.4879
2023-12-08T19:15:49,2420,42.8014,5.9826,13.2981,4.59928,2453.641,38.4886
2023-12-08T19:18:49,2420,42.8014,5.9826,13.2985,4.59921,2453.604,38.4876
2023-12-08T19:21:49,2420,42.8014,5.9826,13.2982,4.59922,2453.604,38.4879
2023-12-08T19:24:49,2420,42.8014,5.9826,13.2984,4.59914,2453.604,38.4870
2023-12-08T19:27:49,2420,42.8014,5.9826,13.2985,4.59917,2453.582,38.4872
2023-12-08T19:30:49,2420,42.8014,5.9826,13.2985,4.59915,2453.582,38.4870
2023-12-08T19:33:50,2420,42.8014,5.9826,13.2986,4.59911,2453.582,38.4865
2023-12-08T19:36:49,2420,42.8014,5.9826,13.2981,4.59918,2453.582,38.4877
2023-12-08T19:39:49,2420,42.8014,5.9826,13.2982,4.59914,2453.582,38.4872
2023-12-08T19:42:49,2420,42.8014,5.9826,13.2983,4.59914,2453.604,38.4871
2023-12-08T19:45:49,2420,42.8014,5.9826,13.2985,4.59917,2453.582,38.4872
2023-12-08T19:48:49,2420,42.8014,5.9826,13.2987,4.59912,2453.596,38.4865
2023-12-08T19:51:50,2420,42.8014,5.9826,13.2982,4.59917,2453.582,38.4875
2023-12-08T19:54:49,2420,42.8014,5.9826,13.2986,4.59913,2453.604,38.4866
2023-12-08T19:57:49,2420,42.8014,5.9826,13.2986,4.59921,2453.582,38.4874
2023-12-08T20:00:49,2420,42.8014,5.9826,13.2985,4.59920,2453.559,38.4874
2023-12-08T20:03:49,2420,42.8014,5.9826,13.2982,4.59913,2453.567,38.4871
2023-12-08T20:06:49,2420,42.8014,5.9826,13.2987,4.59914,2453.559,38.4867
2023-12-08T20:09:49,2420,42.8014,5.9826,13.2984,4.59911,2453.559,38.4867
2023-12-08T20:12:49,2420,42.8014,5.9826,13.2983,4.59917,2453.559,38.4873
2023-12-08T20:15:49,2420,42.8014,5.9826,13.2982,4.59911,2453.582,38.4869
2023-12-08T20:18:49,2420,42.8014,5.9826,13.2984,4.59914,2453.574,38.4870
2023-12-08T20:21:49,2420,42.8014,5.9826,13.2982,4.59909,2453.559,38.4867
2023-12-08T20:24:49,2420,42.8014,5.9826,13.2981,4.59908,2453.559,38.4867
2023-12-08T20:27:49,2420,42.8014,5.9826,13.2982,4.59908,2453.559,38.4866
2023-12-08T20:30:49,2420,42.8014,5.9826,13.2979,4.59909,2453.551,38.4870
2023-12-08T20:33:49,2420,42.8014,5.9826,13.2981,4.59909,2453.559,38.4868
2023-12-08T20:36:49,2420,42.8014,5.9826,13.2981,4.59906,2453.574,38.4866
2023-12-08T20:39:49,2420,42.8014,5.9826,13.2975,4.59909,2453.559,38.4874
2023-12-08T20:42:49,2420,42.8014,5.9826,13.2983,4.59911,2453.596,38.4867
2023-12-08T20:45:49,2420,42.8014,5.9826,13.2985,4.59912,2453.559,38.4867
2023-12-08T20:48:49,2420,42.8014,5.9826,13.2980,4.59906,2453.544,38.4866
2023-12-08T20:51:49,2420,42.8014,5.9826,13.2984,4.59908,2453.514,38.4864
2023-12-08T20:54:49,2420,42.8014,5.9826,13.2981,4.59906,2453.537,38.4865
2023-12-08T20:57:49,2420,42.8014,5.9826,13.2979,4.59906,2453.537,38.4867
2023-12-08T21:00:49,2420,42.8014,5.9826,13.2982,4.59903,2453.522,38.4862
2023-12-08T21:03:49,2420,42.8014,5.9826,13.2982,4.59907,2453.537,38.4866
2023-12-08T21:06:49,2420,42.8014,5.9826,13.2979,4.59907,2453.537,38.4868
2023-12-08T21:09:49,2420,42.8014,5.9826,13.2981,4.59907,2453.491,38.4866
2023-12-08T21:12:49,2420,42.8014,5.9826,13.2980,4.59905,2453.491,38.4865
2023-12-08T21:15:49,2420,42.8014,5.9826,13.2980,4.59908,2453.491,38.4868
2023-12-08T21:18:49,2420,42.8014,5.9826,13.2979,4.59906,2453.559,38.4867
2023-12-08T21:21:49,2420,42.8014,5.9826,13.2979,4.59908,2453.559,38.4869
2023-12-08T21:24:49,2420,42.8014,5.9826,13.2982,4.59906,2453.544,38.4864
2023-12-08T21:27:49,2420,42.8014,5.9826,13.2984,4.59907,2453.559,38.4863
2023-12-08T21:30:49,2420,42.8014,5.9826,13.2979,4.59906,2453.537,38.4867
2023-12-08T21:33:49,2420,42.8014,5.9826,13.2986,4.59907,2453.551,38.4861
2023-12-08T21:36:49,2420,42.8014,5.9826,13.2982,4.59906,2453.559,38.4864
2023-12-08T21:39:49,2420,42.8014,5.9826,13.2983,4.59908,2453.537,38.4865
2023-12-08T21:42:49,2420,42.8014,5.9826,13.2982,4.59906,2453.559,38.4864
2023-12-08T21:45:49,2420,42.8014,5.9826,13.2982,4.59905,2453.537,38.4864
2023-12-08T21:48:49,2420,42.8014,5.9826,13.2986,4.59904,2453.559,38.4859
2023-12-08T21:51:49,2420,42.8014,5.9826,13.2982,4.59906,2453.537,38.4865
2023-12-08T21:54:49,2420,42.8014,5.9826,13.2979,4.59906,2453.537,38.4866
2023-12-08T21:57:49,2420,42.8014,5.9826,13.2985,4.59904,2453.559,38.4859
2023-12-08T22:00:49,2420,42.8014,5.9826,13.2982,4.59906,2453.559,38.4865
2023-12-08T22:03:49,2420,42.8014,5.9826,13.2980,4.59905,2453.537,38.4865
2023-12-08T22:06:49,2420,42.8014,5.9826,13.2979,4.59906,2453.537,38.4867
2023-12-08T22:09:49,2420,42.8014,5.9826,13.2981,4.59907,2453.499,38.4866
2023-12-08T22:12:49,2420,42.8014,5.9826,13.2984,4.59906,2453.537,38.4862
2023-12-08T22:15:49,2420,42.8014,5.9826,13.2982,4.59905,2453.499,38.4863
2023-12-08T22:18:49,2420,42.8014,5.9826,13.2984,4.59903,2453.522,38.4860
2023-12-08T22:21:49,2420,42.8014,5.9826,13.2982,4.59904,2453.528,38.4863
2023-12-08T22:24:49,2420,42.8014,5.9826,13.2980,4.59906,2453.528,38.4866
2023-12-08T22:27:49,2420,42.8014,5.9826,13.2979,4.59904,2453.559,38.4866
2023-12-08T22:30:49,2420,42.8014,5.9826,13.2980,4.59905,2453.559,38.4865
2023-12-08T22:33:49,2420,42.8014,5.9826,13.2983,4.59904,2453.499,38.4862
2023-12-08T22:36:49,2420,42.8014,5.9826,13.2982,4.59906,2453.537,38.4865
2023-12-08T22:39:49,2420,42.8014,5.9826,13.2980,4.59906,2453.537,38.4866
2023-12-08T22:42:49,2420,42.8014,5.9826,13.2983,4.59906,2453.514,38.4863
2023-12-08T22:45:49,2420,42.8014,5.9826,13.2979,4.59907,2453.537,38.4868
2023-12-08T22:48:49,2420,42.8014,5.9826,13.2982,4.59905,2453.559,38.4864
2023-12-08T22:51:49,2420,42.8014,5.9826,13.2979,4.59906,2453.537,38.4867
2023-12-08T22:54:49,2420,42.8014,5.9826,13.2979,4.59905,2453.537,38.4866
2023-12-08T22:57:49,2420,42.8014,5.9826,13.2978,4.59905,2453.537,38.4867
2023-12-08T23:00:50,2420,42.8014,5.9826,13.2982,4.59908,2453.537,38.4867
2023-12-08T23:03:49,2420,42.8014,5.9826,13.2979,4.59911,2453.537,38.4871
2023-12-08T23:06:49,2420,42.8014,5.9826,13.2978,4.59905,2453.522,38.4867
2023-12-08T23:09:49,2420,42.8014,5.9826,13.2979,4.59908,2453.537,38.4869
2023-12-08T23:12:49,2420,42.8014,5.9826,13.2982,4.59906,2453.559,38.4865
2023-12-08T23:15:49,2420,42.8014,5.9826,13.2978,4.59907,2453.537,38.4869
2023-12-08T23:18:49,2420,42.8014,5.9826,13.2977,4.59906,2453.559,38.4870
2023-12-08T23:21:49,2420,42.8014,5.9826,13.2979,4.59904,2453.537,38.4866
2023-12-08T23:24:49,2420,42.8014,5.9826,13.2978,4.59908,2453.559,38.4870
2023-12-08T23:27:49,2420,42.8014,5.9826,13.2979,4.59908,2453.551,38.4868
2023-12-08T23:30:49,2420,42.8014,5.9826,13.2984,4.59905,2453.537,38.4861
2023-12-08T23:33:50,2420,42.8014,5.9826,13.2977,4.59906,2453.537,38.4870
2023-12-08T23:36:49,2420,42.8014,5.9826,13.2981,4.59906,2453.514,38.4866
2023-12-08T23:39:49,2420,42.8014,5.9826,13.2982,4.59906,2453.491,38.4865
2023-12-08T23:42:49,2420,42.8014,5.9826,13.2979,4.59908,2453.537,38.4868
2023-12-08T23:45:49,2420,42.8014,5.9826,13.2978,4.59906,2453.559,38.4868
2023-12-08T23:48:49,2420,42.8014,5.9826,13.2979,4.59905,2453.514,38.4866
2023-12-08T23:51:49,2420,42.8014,5.9826,13.2981,4.59906,2453.537,38.4865
2023-12-08T23:54:49,2420,42.8014,5.9826,13.2979,4.59908,2453.537,38.4869
2023-12-08T23:57:49,2420,42.8014,5.9826,13.2979,4.59904,2453.559,38.4865
